This demonstration page uses our WeatherBlox Daily Observations layout. Learn more.

Left ArrowRight Arrow

39.01783, -85.05884

Hourly Observations for December 18, 2020

Temp ( °F °C ) Dew Point ( °F °C ) Humidity (%) Winds ( mph kmh ) Pressure ( in mb ) Visibility ( mi km ) Precip ( " mm )
12:52 am 00:52 Cloudy with Mist and Fog 31 -0.6 29 -1.7 92 92 WNW 6 9 30.28 1025 3 5 0.00 0.00
1:52 am 01:52 Cloudy with Light Snow 31 -0.6 29 -1.7 92 92 WNW 3 6 30.29 1026 6 10 0.00 0.00
2:50 am 02:50 Cloudy with Mist and Fog 30 -1 28 -2 93 93 W 3 6 30.35 1028 4 6 0.00 0.00
2:52 am 02:52 Cloudy with Mist and Fog 31 -0.6 29 -1.7 92 92 W 3 6 30.32 1027 4 6 0.00 0.00
3:21 am 03:21 Cloudy with Mist and Fog 31 -0.6 28 -2.2 89 89 W 6 9 30.37 1028 4 6 N/A
3:52 am 03:52 Cloudy with Mist and Fog 31 -0.6 27 -2.8 85 85 W 7 11 30.35 1028 5 8 N/A
4:13 am 04:13 Cloudy with Mist and Fog 31 -0.6 27 -2.8 85 85 W 6 9 30.38 1029 5 8 N/A
4:20 am 04:20 Cloudy with Mist and Fog 31 -0.6 27 -2.8 85 85 W 7 11 30.38 1029 5 8 N/A
4:52 am 04:52 Cloudy with Mist and Fog 31 -0.6 28 -2.2 89 89 W 7 11 30.36 1028 5 8 N/A
5:18 am 05:18 Cloudy with Mist and Fog 31 -0.6 27 -2.8 85 85 W 7 11 30.39 1029 5 8 N/A
5:52 am 05:52 Cloudy with Mist and Fog 31 -0.6 27 -2.8 85 85 W 7 11 30.37 1029 5 8 N/A
6:10 am 06:10 Cloudy with Mist and Fog 30 -1.1 26 -3.3 85 85 W 6 9 30.41 1030 6 10 N/A
6:52 am 06:52 Cloudy with Mist and Fog 30 -1.1 26 -3.3 85 85 W 5 7 30.39 1029 6 10 N/A
7:52 am 07:52 Mostly Cloudy with Mist and Fog 27 -2.8 24 -4.4 89 89 WSW 5 7 30.42 1030 4 6 N/A
8:52 am 08:52 Mostly Cloudy with Mist and Fog 29 -1.7 25 -3.9 85 85 WSW 3 6 30.43 1031 5 8 N/A
9:52 am 09:52 Mostly Cloudy with Haze 33 0.6 27 -2.8 78 78 N N/A 30.44 1031 5 8 N/A
10:52 am 10:52 Mostly Cloudy 34 1.1 27 -2.8 76 76 E 5 7 30.44 1031 7 11 N/A
11:52 am 11:52 Partly Cloudy 35 1.7 26 -3.3 70 70 S 6 9 30.44 1031 7 11 N/A
12:07 pm 12:07 Mostly Cloudy 37 2.8 27 -2.8 67 67 SSE 8 13 30.46 1031 7 11 N/A
12:52 pm 12:52 Mostly Cloudy 37 2.8 26 -3.3 65 65 SSE 8 13 30.41 1030 10 16 N/A
1:52 pm 13:52 Partly Cloudy 38 3.3 25 -3.9 60 60 SSW 8 13 30.40 1030 10 16 N/A
2:52 pm 14:52 Partly Cloudy 39 3.9 25 -3.9 57 57 S 9 15 30.38 1029 10 16 N/A
3:52 pm 15:52 Mostly Cloudy 37 2.8 25 -3.9 62 62 S 9 15 30.39 1029 10 16 N/A
4:52 pm 16:52 Cloudy 36 2.2 26 -3.3 67 67 SSE 10 17 30.37 1029 10 16 N/A
5:52 pm 17:52 Cloudy 35 1.7 25 -3.9 67 67 SE 13 20 30.37 1029 10 16 N/A
6:52 pm 18:52 Cloudy 34 1.1 25 -3.9 70 70 SSE 10 17 30.36 1028 10 16 N/A
7:52 pm 19:52 Cloudy 32 undefined 24 -4.4 73 73 SSE 8 13 30.37 1029 9 14 N/A
8:52 pm 20:52 Cloudy 33 0.6 24 -4.4 70 70 SSE 12 19 30.35 1028 9 14 N/A
9:52 pm 21:52 Mostly Cloudy 31 -0.6 24 -4.4 76 76 SSE 10 17 30.35 1028 8 13 N/A
10:52 pm 22:52 Mostly Cloudy 29 -1.7 23 -5 78 78 SSE 7 11 30.35 1028 8 13 N/A
11:52 pm 23:52 Partly Cloudy 30 -1.1 24 -4.4 79 79 SSE 9 15 30.34 1027 9 14 N/A

Powered by AerisWeather